Location: Cossonay
(46.5833°N, 6.4167°E)
Time: 21:46:38
(UTC+00:00)

Cosmos 1980 Rocket - Pass Details

Date: 07 June 2020
Orbit: 828 x 851 km, 71.0° (Epoch: 04 July)

Event Time Altitude Azimuth Distance (km) Brightness Sun altitude
Exits shadow 00:51:56 31° 218° (SW) 1,432 2.9 -18.4°
Maximum altitude 00:54:43 75° 298° (WNW) 871 2.2 -18.2°
Drops below altitude 10° 01:00:24 10° 24° (NNE) 2,471 5.9 -17.9°
Sets 01:02:52 0° 26° (NNE) 3,413 7.1 -17.7°
